METAR UND TAF INFORMATION
EETN 160750Z 13007KT 9999 OVC011 M06/M07 Q1033 R08/19//95 NOSIG

 FLUGHAFENKARTE

 RUNWAY INFORMATION
Runway 08 Runway length 10072 ft Runway width 148 ft
Runway elevation 129 ft Runway displaced threshold 820 ft Runway heading 90
Runway 26 Runway length 10072 ft Runway width 148 ft
Runway elevation 131 ft Runway displaced threshold 0 ft Runway heading 270

 AIRPORT FREQUENCIES
Type APP Name APP Frequency 127.9 MHZ
Type ATIS Name ATIS Frequency 124.875 MHZ
Type TWR Name TWR Frequency 120.6 MHZ

 AIRPORT NEAR NAVIGATION AIDS
Type NDB Name Tallinn Frequency 329 KHZ
Type NDB Name Tallinn Frequency 386 KHZ
Type VOR-DME Name Tallinn Frequency 112200 KHZ



Version 5.0.0: Changelog

Impressum | Datenschutzerklärung

Virtual Airlines Manager